Location: Firnhaberau
(48.4049°N, 10.8963°E)
Time: 18:04:45
(UTC+00:00)

CZ-4C R/B - Pass Details

Date: 07 June 2020
Orbit: 634 x 1368 km, 63.4° (Epoch: 12 July)

Event Time Altitude Azimuth Distance (km) Brightness Sun altitude
Exits shadow 01:16:43 - 263° (W) 2,874 4.6 -13.8°
Reaches altitude 10° 01:18:18 10° 271° (W) 2,354 4.3 -13.7°
Maximum altitude 01:23:08 32° 334° (NNW) 1,493 3.8 -13.3°
Drops below altitude 10° 01:28:51 10° 36° (NE) 2,798 6.4 -12.8°
Sets 01:32:03 0° 46° (NE) 3,885 7.4 -12.5°
